Monett, MO

7:22 AM CDT on October 18, 2017 (GMT -0500)
Monett

Weather History for KHFJ - February, 2013

Change the Weather History Date:

Friday, February 1, 2013

  Actual Average (KJLN) Record (KJLN)
Temperature  
Mean Temperature 24 °F -  
Max Temperature 37 °F 46 °F 70 °F (1974)
Min Temperature 10 °F 26 °F -7 °F (1979)
Degree Days  
Heating Degree Days 42    
Moisture  
Dew Point 11 °F    
Average Humidity 61    
Maximum Humidity 79    
Minimum Humidity 41    
Precipitation  
Precipitation 0.00 in - - ()
Sea Level Pressure  
Sea Level Pressure 30.31 in    
Wind  
Wind Speed 6 mph (ESE)    
Max Wind Speed 13 mph    
Max Gust Speed -    
Visibility 10 miles    
Events      
Averages and records for this station are not official NWS values.
T = Trace of Precipitation, MM = Missing Value Source: NWS Daily Summary

Daily Weather History Graph

Daily Weather History Graph

Search for Another Location

Airport or City:

Trip Planner

Search our weather history database for the weather conditions in past years. The results will help you decide how hot, cold, wet, or windy it might be!

Date:

Astronomy

Feb. 01, 2013 Rise Set
Actual Time 7:18 AM CST 5:41 PM CST
Civil Twilight 6:50 AM CST 6:08 PM CST
Nautical Twilight 6:19 AM CST 6:39 PM CST
Astronomical Twilight 5:49 AM CST 7:10 PM CST
Moon 11:38 PM CST (2/1) 10:01 AM CST (2/1)
Length of Visible Light 11h 18m
Length of Day
10h 23m
Waning Gibbous, 70% of the Moon is Illuminated
Feb 1
Waning Gibbous
Feb 3
Last Quarter
Feb 10
New
Feb 17
First Quarter
Feb 25
Full

Hourly Weather History & Observations

Time (CST) Temp. Windchill Dew Point Humidity Pressure Visibility Wind Dir Wind Speed Gust Speed Precip Events Conditions
12:15 AM 14.0 °F 2.9 °F 6.8 °F 73% 30.41 in 10.0 mi North 8.1 mph - N/A   Clear
12:35 AM 12.2 °F 2.9 °F 6.8 °F 79% 30.41 in 10.0 mi North 5.8 mph - N/A   Clear
12:55 AM 12.2 °F 4.3 °F 6.8 °F 79% 30.42 in 10.0 mi North 4.6 mph - N/A   Clear
1:15 AM 12.2 °F 1.7 °F 6.8 °F 79% 30.41 in 10.0 mi North 6.9 mph - N/A   Clear
1:35 AM 12.2 °F 2.9 °F 5.0 °F 73% 30.41 in 10.0 mi NNW 5.8 mph - N/A   Clear
1:55 AM 12.2 °F 4.3 °F 5.0 °F 73% 30.42 in 10.0 mi North 4.6 mph - N/A   Clear
2:15 AM 12.2 °F 2.9 °F 5.0 °F 73% 30.41 in 10.0 mi North 5.8 mph - N/A   Clear
2:35 AM 12.2 °F 0.7 °F 5.0 °F 73% 30.39 in 10.0 mi North 8.1 mph - N/A   Clear
2:55 AM 12.2 °F 1.7 °F 5.0 °F 73% 30.39 in 10.0 mi North 6.9 mph - N/A   Clear
3:15 AM 12.2 °F 4.3 °F 5.0 °F 73% 30.39 in 10.0 mi NNE 4.6 mph - N/A   Clear
3:35 AM 12.2 °F 2.9 °F 5.0 °F 73% 30.38 in 10.0 mi NNE 5.8 mph - N/A   Clear
3:55 AM 12.2 °F 2.9 °F 5.0 °F 73% 30.37 in 10.0 mi NE 5.8 mph - N/A   Clear
4:15 AM 10.4 °F 2.2 °F 5.0 °F 79% 30.39 in 10.0 mi NNE 4.6 mph - N/A   Clear
4:35 AM 10.4 °F - 3.2 °F 73% 30.39 in 10.0 mi Calm Calm - N/A   Clear
4:55 AM 10.4 °F - 5.0 °F 79% 30.40 in 10.0 mi Calm Calm - N/A   Clear
5:15 AM 10.4 °F - 5.0 °F 79% 30.41 in 10.0 mi Calm Calm - N/A   Clear
5:35 AM 10.4 °F - 5.0 °F 79% 30.41 in 10.0 mi Calm Calm - N/A   Clear
5:55 AM 10.4 °F 4.0 °F 5.0 °F 79% 30.40 in 10.0 mi ESE 3.5 mph - N/A   Clear
6:15 AM 10.4 °F 0.8 °F 5.0 °F 79% 30.40 in 10.0 mi ESE 5.8 mph - N/A   Clear
6:35 AM 10.4 °F 4.0 °F 5.0 °F 79% 30.41 in 10.0 mi SSE 3.5 mph - N/A   Clear
6:55 AM 10.4 °F 4.0 °F 5.0 °F 79% 30.41 in 10.0 mi SE 3.5 mph - N/A   Clear
7:15 AM 10.4 °F 2.2 °F 5.0 °F 79% 30.42 in 10.0 mi SE 4.6 mph - N/A   Clear
7:35 AM 10.4 °F 2.2 °F 5.0 °F 79% 30.41 in 10.0 mi SE 4.6 mph - N/A   Clear
7:55 AM 12.2 °F 2.9 °F 5.0 °F 73% 30.41 in 10.0 mi ESE 5.8 mph - N/A   Clear
8:15 AM 12.2 °F 1.7 °F 5.0 °F 73% 30.42 in 10.0 mi ESE 6.9 mph - N/A   Clear
8:35 AM 14.0 °F 2.9 °F 6.8 °F 73% 30.42 in 10.0 mi SE 8.1 mph - N/A   Clear
8:55 AM 14.0 °F 2.9 °F 5.0 °F 67% 30.42 in 10.0 mi SE 8.1 mph - N/A   Clear
9:15 AM 15.8 °F 7.2 °F 5.0 °F 62% 30.43 in 10.0 mi SE 5.8 mph - N/A   Clear
9:35 AM 17.6 °F 10.7 °F 5.0 °F 58% 30.42 in 10.0 mi SE 4.6 mph - N/A   Clear
9:55 AM 19.4 °F 14.3 °F 5.0 °F 54% 30.42 in 10.0 mi SE 3.5 mph - N/A   Clear
10:15 AM 19.4 °F 12.8 °F 5.0 °F 54% 30.42 in 10.0 mi ESE 4.6 mph - N/A   Clear
10:35 AM 21.2 °F 14.9 °F 5.0 °F 50% 30.42 in 10.0 mi East 4.6 mph - N/A   Clear
10:55 AM 21.2 °F 13.6 °F 8.6 °F 58% 30.40 in 10.0 mi ESE 5.8 mph - N/A   Mostly Cloudy
11:15 AM 23.0 °F 15.8 °F 10.4 °F 59% 30.39 in 10.0 mi East 5.8 mph - N/A   Scattered Clouds
11:35 AM 24.8 °F 17.9 °F 8.6 °F 50% 30.39 in 10.0 mi ESE 5.8 mph - N/A   Clear
11:55 AM 26.6 °F 20.0 °F 12.2 °F 55% 30.37 in 10.0 mi South 5.8 mph - N/A   Clear
12:15 PM 28.4 °F 21.2 °F 12.2 °F 51% 30.35 in 10.0 mi SE 6.9 mph - N/A   Clear
12:35 PM 30.2 °F 21.9 °F 12.2 °F 47% 30.35 in 10.0 mi SSE 9.2 mph - N/A   Clear
12:55 PM 30.2 °F 22.6 °F 14.0 °F 51% 30.33 in 10.0 mi SSE 8.1 mph - N/A   Clear
1:15 PM 32.0 °F 25.6 °F 14.0 °F 48% 30.32 in 10.0 mi SE 6.9 mph - N/A   Clear
1:35 PM 32.0 °F 23.6 °F 14.0 °F 48% 30.30 in 10.0 mi SE 10.4 mph - N/A   Clear
1:55 PM 32.0 °F 24.8 °F 14.0 °F 48% 30.28 in 10.0 mi SSE 8.1 mph - N/A   Clear
2:15 PM 33.8 °F 24.8 °F 14.0 °F 44% 30.27 in 10.0 mi SSE 12.7 mph - N/A   Clear
2:35 PM 33.8 °F 25.3 °F 14.0 °F 44% 30.26 in 10.0 mi SSE 11.5 mph - N/A   Clear
2:55 PM 33.8 °F 25.8 °F 12.2 °F 41% 30.25 in 10.0 mi SE 10.4 mph - N/A   Clear
3:15 PM 33.8 °F 26.4 °F 14.0 °F 44% 30.25 in 10.0 mi SE 9.2 mph - N/A   Clear
3:35 PM 35.6 °F 29.2 °F 14.0 °F 41% 30.23 in 10.0 mi SSE 8.1 mph - N/A   Clear
3:55 PM 35.6 °F 28.6 °F 14.0 °F 41% 30.23 in 10.0 mi SE 9.2 mph - N/A   Clear
4:15 PM 35.6 °F 29.2 °F 15.8 °F 44% 30.21 in 10.0 mi ESE 8.1 mph - N/A   Clear
4:35 PM 35.6 °F 29.2 °F 17.6 °F 48% 30.20 in 10.0 mi SE 8.1 mph - N/A   Clear
4:55 PM 37.4 °F 29.8 °F 15.8 °F 41% 30.18 in 10.0 mi SE 11.5 mph - N/A   Clear
5:15 PM 35.6 °F 28.6 °F 15.8 °F 44% 30.18 in 10.0 mi SE 9.2 mph - N/A   Clear
5:35 PM 35.6 °F 29.9 °F 17.6 °F 48% 30.17 in 10.0 mi ESE 6.9 mph - N/A   Clear
5:55 PM 33.8 °F 27.7 °F 17.6 °F 52% 30.17 in 10.0 mi ESE 6.9 mph - N/A   Clear
6:15 PM 33.8 °F 27.0 °F 17.6 °F 52% 30.16 in 10.0 mi ESE 8.1 mph - N/A   Scattered Clouds
6:35 PM 33.8 °F 27.0 °F 17.6 °F 52% 30.15 in 10.0 mi ESE 8.1 mph - N/A   Clear
6:55 PM 32.0 °F 24.8 °F 17.6 °F 55% 30.15 in 10.0 mi SE 8.1 mph - N/A   Clear
7:15 PM 32.0 °F 24.2 °F 17.6 °F 55% 30.15 in 10.0 mi SE 9.2 mph - N/A   Scattered Clouds
7:35 PM 32.0 °F 24.2 °F 17.6 °F 55% 30.15 in 10.0 mi SE 9.2 mph - N/A   Scattered Clouds
7:55 PM 32.0 °F 27.5 °F 17.6 °F 55% 30.16 in 10.0 mi SE 4.6 mph - N/A   Clear
8:15 PM 32.0 °F 27.5 °F 17.6 °F 55% 30.17 in 10.0 mi SE 4.6 mph - N/A   Clear
8:35 PM 32.0 °F 27.5 °F 17.6 °F 55% 30.18 in 10.0 mi South 4.6 mph - N/A   Clear
8:55 PM 30.2 °F 23.4 °F 17.6 °F 60% 30.17 in 10.0 mi SE 6.9 mph - N/A   Clear
9:15 PM 30.2 °F 23.4 °F 17.6 °F 60% 30.18 in 10.0 mi SSE 6.9 mph - N/A   Clear
9:35 PM 30.2 °F 25.4 °F 17.6 °F 60% 30.18 in 10.0 mi South 4.6 mph - N/A   Clear
9:55 PM 30.2 °F - 17.6 °F 60% 30.20 in 10.0 mi Calm Calm - N/A   Clear
10:15 PM 30.2 °F 26.7 °F 17.6 °F 60% 30.20 in 10.0 mi South 3.5 mph - N/A   Clear
10:35 PM 28.4 °F 23.3 °F 17.6 °F 64% 30.19 in 10.0 mi South 4.6 mph - N/A   Clear
10:55 PM 28.4 °F 23.3 °F 17.6 °F 64% 30.19 in 10.0 mi SSE 4.6 mph - N/A   Clear
11:15 PM 28.4 °F 22.2 °F 17.6 °F 64% 30.18 in 10.0 mi SE 5.8 mph - N/A   Clear
11:35 PM 28.4 °F 21.2 °F 17.6 °F 64% 30.18 in 10.0 mi SE 6.9 mph - N/A   Clear
11:55 PM 28.4 °F 21.2 °F 17.6 °F 64% 30.17 in 10.0 mi SSE 6.9 mph - N/A   Clear